Tracking 19706 objects as of 16-Jun-2019
HD Live streaming from Space Station
objects crossing your sky now

COSMOS 1137

Track COSMOS 1137 now!
10-day predictions
COSMOS 1137 is classified as:


NORAD ID: 11545
Int'l Code: 1979-084H
Perigee: 1,479.3 km
Apogee: 1,521.4 km
Inclination: 74.0 °
Period: 115.8 minutes
Semi major axis: 7871 km
RCS: 0.7275 m2 (medium)
Launch date: September 25, 1979
Source: Commonwealth of Independent States (former USSR) (CIS)
Launch site: PLESETSK MISSILE AND SPACE COMPLEX (PKMTR)
aabbcc
Your satellite tracking list
Your tracking list is empty




NASA's NSSDC Master Catalog

Two Line Element Set (TLE):
1 11545U 79084H   19166.91563806 +.00000004 +00000-0 +14323-3 0  9995
2 11545 074.0255 010.5210 0026721 307.1172 160.2714 12.43158621802609
Source of the keplerian elements: AFSPC